• In Lithuania
  • List of Countries
  • For 7 days
  • Water Temperature
  • Satellite Maps
  • Weather Map
  • Weather Widgets
  • user-avatar
    Login

    Hourly Weather Port-au-Princ

    Today, 23 September, Sunday

    Time Temperature Precipitation Wind Pressure Humidity
    00:00 +26°C° 0.2 mm 1 mps 734 mmHg 81%
    01:00 +25°C° 0 mm 1 mps 734 mmHg 82%
    02:00 +25°C° 0 mm 1 mps 734 mmHg 82%
    03:00 +25°C° 0 mm 1 mps 734 mmHg 83%
    04:00 +25°C° 0 mm 1 mps 734 mmHg 83%
    05:00 +25°C° 0 mm 1 mps 734 mmHg 79%
    06:00 +26°C° 0 mm 1 mps 734 mmHg 76%
    07:00 +27°C° 0 mm 2 mps 734 mmHg 72%
    08:00 +29°C° 0 mm 2 mps 735 mmHg 64%
    09:00 +31°C° 0 mm 2 mps 735 mmHg 57%
    10:00 +34°C° 0 mm 2 mps 735 mmHg 49%
    11:00 +35°C° 0 mm 2 mps 735 mmHg 48%
    12:00 +35°C° 0 mm 3 mps 735 mmHg 46%
    13:00 +36°C° 0 mm 3 mps 734 mmHg 45%
    14:00 +35°C° 0.5 mm 3 mps 734 mmHg 50%
    15:00 +34°C° 0.5 mm 3 mps 734 mmHg 54%
    16:00 +31°C° 0.5 mm 3 mps 733 mmHg 59%
    17:00 +30°C° 0.8 mm 2 mps 733 mmHg 65%
    18:00 +29°C° 0.8 mm 2 mps 734 mmHg 72%
    19:00 +27°C° 0.8 mm 2 mps 734 mmHg 78%
    20:00 +27°C° 0.1 mm 1 mps 734 mmHg 79%
    21:00 +26°C° 0.1 mm 1 mps 735 mmHg 80%
    22:00 +26°C° 0.1 mm 1 mps 735 mmHg 81%
    23:00 +26°C° 0 mm 1 mps 735 mmHg 81%

    Tomorrow, 24 September, Monday

    Time Temperature Precipitation Wind Pressure Humidity
    00:00 +26°C° 0 mm 2 mps 735 mmHg 82%
    01:00 +25°C° 0 mm 2 mps 734 mmHg 82%
    02:00 +25°C° 0 mm 2 mps 734 mmHg 83%
    03:00 +25°C° 0 mm 2 mps 734 mmHg 83%
    04:00 +25°C° 0 mm 2 mps 734 mmHg 83%
    05:00 +25°C° 0 mm 2 mps 734 mmHg 80%
    06:00 +26°C° 0 mm 2 mps 735 mmHg 76%
    07:00 +27°C° 0 mm 2 mps 735 mmHg 73%
    08:00 +29°C° 0 mm 2 mps 735 mmHg 64%
    09:00 +31°C° 0 mm 2 mps 736 mmHg 56%
    10:00 +35°C° 0 mm 2 mps 736 mmHg 47%
    11:00 +35°C° 0 mm 2 mps 736 mmHg 45%
    12:00 +36°C° 0 mm 3 mps 735 mmHg 42%
    13:00 +37°C° 0 mm 3 mps 735 mmHg 40%
    14:00 +36°C° 0.1 mm 3 mps 735 mmHg 44%
    15:00 +34°C° 0.1 mm 3 mps 734 mmHg 48%
    16:00 +33°C° 0.1 mm 3 mps 734 mmHg 52%
    17:00 +31°C° 0.1 mm 3 mps 734 mmHg 58%
    18:00 +29°C° 0.1 mm 2 mps 735 mmHg 65%
    19:00 +28°C° 0.1 mm 2 mps 735 mmHg 71%
    20:00 +27°C° 0 mm 2 mps 736 mmHg 72%
    21:00 +27°C° 0 mm 2 mps 736 mmHg 74%
    22:00 +26°C° 0 mm 2 mps 736 mmHg 76%
    23:00 +26°C° 0 mm 2 mps 736 mmHg 77%

    Day after tomorrow, 25 September, Tuesday

    Time Temperature Precipitation Wind Pressure Humidity
    00:00 +26°C° 0 mm 2 mps 736 mmHg 78%
    01:00 +25°C° 0 mm 2 mps 736 mmHg 79%
    02:00 +25°C° 0 mm 2 mps 735 mmHg 79%
    03:00 +25°C° 0 mm 2 mps 735 mmHg 79%
    04:00 +25°C° 0 mm 2 mps 735 mmHg 80%
    05:00 +25°C° 0 mm 2 mps 735 mmHg 77%
    06:00 +26°C° 0 mm 2 mps 736 mmHg 74%
    07:00 +27°C° 0 mm 2 mps 736 mmHg 71%
    08:00 +29°C° 0 mm 2 mps 736 mmHg 63%
    09:00 +31°C° 0 mm 2 mps 737 mmHg 55%
    10:00 +35°C° 0 mm 2 mps 737 mmHg 48%
    11:00 +35°C° 0 mm 2 mps 737 mmHg 45%
    12:00 +36°C° 0 mm 2 mps 736 mmHg 43%
    13:00 +36°C° 0 mm 3 mps 736 mmHg 40%
    14:00 +35°C° 0.2 mm 3 mps 735 mmHg 45%
    15:00 +34°C° 0.2 mm 3 mps 735 mmHg 50%
    16:00 +33°C° 0.2 mm 3 mps 735 mmHg 55%
    17:00 +31°C° 0.3 mm 2 mps 735 mmHg 61%
    18:00 +29°C° 0.3 mm 2 mps 735 mmHg 68%
    19:00 +27°C° 0.3 mm 2 mps 735 mmHg 75%
    20:00 +27°C° 0.5 mm 1 mps 736 mmHg 76%
    21:00 +27°C° 0.5 mm 1 mps 736 mmHg 78%
    22:00 +26°C° 0.5 mm 1 mps 736 mmHg 80%
    23:00 +26°C° 0.3 mm 1 mps 736 mmHg 80%

    26 September, Wednesday

    Time Temperature Precipitation Wind Pressure Humidity
    00:00 +26°C° 0.3 mm 1 mps 736 mmHg 81%
    01:00 +25°C° 0.3 mm 1 mps 736 mmHg 82%
    02:00 +25°C° 0 mm 1 mps 735 mmHg 82%
    03:00 +25°C° 0 mm 1 mps 735 mmHg 82%
    04:00 +25°C° 0 mm 2 mps 735 mmHg 82%
    05:00 +26°C° 0 mm 2 mps 735 mmHg 78%
    06:00 +26°C° 0 mm 2 mps 735 mmHg 74%
    07:00 +27°C° 0 mm 2 mps 735 mmHg 70%
    08:00 +29°C° 0 mm 2 mps 736 mmHg 63%
    09:00 +31°C° 0 mm 2 mps 736 mmHg 56%
    10:00 +34°C° 0 mm 2 mps 736 mmHg 49%
    11:00 +35°C° 0 mm 2 mps 736 mmHg 47%
    12:00 +36°C° 0 mm 2 mps 735 mmHg 45%
    13:00 +36°C° 0 mm 3 mps 735 mmHg 43%
    14:00 +35°C° 0.6 mm 2 mps 735 mmHg 49%
    15:00 +34°C° 0.6 mm 2 mps 734 mmHg 54%
    16:00 +31°C° 0.6 mm 2 mps 734 mmHg 59%
    17:00 +30°C° 0.9 mm 2 mps 734 mmHg 64%
    18:00 +29°C° 0.9 mm 2 mps 734 mmHg 69%
    19:00 +28°C° 0.9 mm 2 mps 735 mmHg 74%
    20:00 +28°C° 0 mm 1 mps 735 mmHg 76%
    21:00 +27°C° 0 mm 1 mps 735 mmHg 77%
    22:00 +27°C° 0 mm 1 mps 735 mmHg 79%
    23:00 +26°C° 0 mm 1 mps 735 mmHg 80%

    27 September, Thursday

    Time Temperature Precipitation Wind Pressure Humidity
    00:00 +26°C° 0 mm 1 mps 734 mmHg 82%
    01:00 +26°C° 0 mm 1 mps 734 mmHg 83%
    02:00 +26°C° 0 mm 1 mps 734 mmHg 84%
    03:00 +25°C° 0 mm 1 mps 734 mmHg 84%
    04:00 +25°C° 0 mm 1 mps 734 mmHg 85%
    05:00 +26°C° 0 mm 1 mps 734 mmHg 81%
    06:00 +26°C° 0 mm 1 mps 735 mmHg 78%
    07:00 +27°C° 0 mm 1 mps 735 mmHg 75%
    08:00 +29°C° 0 mm 1 mps 735 mmHg 67%
    09:00 +31°C° 0 mm 1 mps 736 mmHg 59%
    10:00 +33°C° 0 mm 1 mps 736 mmHg 51%
    11:00 +35°C° 0 mm 2 mps 735 mmHg 49%
    12:00 +36°C° 0 mm 2 mps 735 mmHg 46%
    13:00 +36°C° 0 mm 2 mps 734 mmHg 44%
    14:00 +35°C° 0.8 mm 2 mps 734 mmHg 49%
    15:00 +34°C° 0.8 mm 2 mps 734 mmHg 54%
    16:00 +32°C° 0.8 mm 2 mps 733 mmHg 58%
    17:00 +31°C° 1.2 mm 2 mps 734 mmHg 64%
    18:00 +29°C° 1.2 mm 2 mps 734 mmHg 70%
    19:00 +28°C° 1.2 mm 1 mps 735 mmHg 75%
    20:00 +28°C° 0.1 mm 1 mps 735 mmHg 77%
    21:00 +27°C° 0.1 mm 1 mps 735 mmHg 78%
    22:00 +27°C° 0.1 mm 1 mps 735 mmHg 80%
    23:00 +27°C° 0.2 mm 1 mps 735 mmHg 81%

    28 September, Friday

    Time Temperature Precipitation Wind Pressure Humidity
    00:00 +26°C° 0.2 mm 1 mps 735 mmHg 82%
    01:00 +26°C° 0.2 mm 1 mps 734 mmHg 83%
    02:00 +26°C° 0 mm 1 mps 734 mmHg 83%
    03:00 +26°C° 0 mm 1 mps 734 mmHg 84%
    04:00 +25°C° 0 mm 1 mps 734 mmHg 85%
    05:00 +26°C° 0 mm 1 mps 735 mmHg 82%
    06:00 +27°C° 0 mm 1 mps 735 mmHg 79%
    07:00 +27°C° 0 mm 1 mps 735 mmHg 76%
    08:00 +29°C° 0 mm 1 mps 736 mmHg 68%
    09:00 +31°C° 0 mm 1 mps 736 mmHg 61%
    10:00 +33°C° 0 mm 1 mps 736 mmHg 53%
    11:00 +35°C° 0 mm 2 mps 735 mmHg 50%
    12:00 +35°C° 0 mm 2 mps 735 mmHg 48%
    13:00 +36°C° 0 mm 2 mps 734 mmHg 45%
    14:00 +35°C° 0.2 mm 3 mps 734 mmHg 49%
    15:00 +34°C° 0.2 mm 3 mps 734 mmHg 53%
    16:00 +33°C° 0.2 mm 3 mps 733 mmHg 57%
    17:00 +31°C° 0.8 mm 3 mps 734 mmHg 64%
    18:00 +29°C° 0.8 mm 2 mps 734 mmHg 71%
    19:00 +28°C° 0.8 mm 2 mps 735 mmHg 78%
    20:00 +27°C° 0.1 mm 2 mps 735 mmHg 80%
    21:00 +27°C° 0.1 mm 1 mps 735 mmHg 81%
    22:00 +27°C° 0.1 mm 1 mps 735 mmHg 83%
    23:00 +26°C° 0 mm 1 mps 735 mmHg 84%
    Show more